#timestamp,LO_Frequency,Hit,StdDev 
1459908015.6,286047004.1,N
1459908035.4,286047006.0,Y
1459908055.3,286047003.7,P
1459908075.1,286047004.5,P
1459908095.8,286047007.5,P
1459908115.7,286047004.8,N
1459908135.5,286047007.3,Y
1459908155.3,286046999.7,P
1459908175.2,286047001.1,N
1459908195.0,286046999.3,N
1459908195.9,286046999.3,N
1459908215.7,286046997.3,N
1459908235.6,286046996.6,N
1459908255.4,286046997.0,N
1459908275.2,286046997.6,N
1459908295.1,286046998.5,N
1459908296.0,286046998.5,N
1459908315.8,286046997.2,N
1459908335.6,286046997.8,N
1459908355.5,286046995.6,N
1459908375.3,286046995.8,N
1459908395.1,286046994.0,N
1459908415.9,286046995.9,N
1459908435.7,286046997.7,N
1459908455.5,286046995.4,N
1459908475.3,286046996.9,N
1459908495.2,286046999.0,N
1459908515.0,286046997.6,N
1459908515.9,286046997.6,N
1459908535.7,286046993.4,Y
1459908555.6,286046997.0,P
1459908575.4,286046996.6,P
1459908595.2,286046999.3,N
1459908615.1,286046998.1,N
1459908616.0,286046998.1,N
1459908635.8,286046997.3,Y
1459908655.6,286046998.4,P
1459908675.5,286047000.0,N
1459908695.3,286046999.7,N
1459908715.1,286047000.6,N
1459908735.9,286047002.5,N
1459908755.7,286047002.1,N
1459908775.5,286047000.5,N
1459908795.4,286047001.2,N
1459908815.2,286046998.7,N
1459908835.0,286046997.0,N
1459908835.9,286046997.0,N
1459908855.8,286046997.7,N
1459908875.6,286046997.4,N
1459908895.4,286046998.5,N
1459908915.3,286046998.7,N
1459908935.1,286046998.8,N
1459908936.0,286046998.8,N
1459908955.8,286047002.2,N
1459908975.7,286047003.2,N
1459908995.5,286047002.0,N
1459909015.3,286047002.7,N
1459909035.1,286047004.9,N
1459909055.9,286047003.4,N
1459909075.7,286047004.2,N
1459909095.5,286047001.4,N
1459909115.4,286047003.3,N
1459909135.2,286047003.8,N
1459909155.0,286047000.3,N
1459909155.9,286047000.3,N
1459909175.8,286047000.5,N
1459909195.6,286047000.0,N
1459909215.4,286047001.4,N
1459909235.3,286047002.3,N
1459909255.1,286047003.9,N
1459909256.0,286047003.9,N
1459909275.8,286047001.7,N
1459909295.7,286047003.5,N
1459909315.5,286047003.1,N
1459909335.3,286047003.7,N
1459909355.1,286047001.7,N
1459909375.9,286047001.8,N
1459909395.7,286047000.8,N
1459909415.5,286046998.2,N
1459909435.4,286047002.7,N
1459909455.2,286047000.8,N
1459909475.0,286047002.7,N
1459909475.9,286047002.7,N
1459909495.8,286047001.5,N
1459909515.6,286047003.3,N
1459909535.4,286047005.5,Y
1459909555.3,286046999.7,P
1459909575.1,286047002.4,N
1459909595.8,286047002.5,N
1459909615.7,286046999.9,N
1459909635.5,286046998.8,N
1459909655.3,286047000.8,N
1459909675.2,286046998.6,N
1459909695.9,286046996.6,N
1459909715.7,286046996.6,N
1459909735.6,286047001.2,N
1459909755.4,286046997.2,N
1459909775.2,286046997.5,N
1459909795.0,286046999.0,N
1459909796.0,286046999.0,N
1459909815.8,286046997.7,N
1459909835.6,286046995.1,N
1459909855.4,286046996.0,N
1459909875.3,286046997.4,N
1459909895.1,286046996.8,N
1459909915.8,286046998.9,N
1459909935.7,286046995.4,N
1459909955.5,286046994.9,N
1459909975.3,286046996.7,N
1459909995.2,286046998.6,N
1459910015.9,286046999.3,N
1459910035.7,286047000.6,N
1459910055.6,286046998.2,N
1459910075.4,286046998.9,N
1459910095.2,286046999.3,N
1459910115.0,286047001.2,N
1459910115.9,286047001.2,N
1459910135.8,286047000.3,N
1459910155.6,286046999.7,N
1459910175.4,286046999.7,N
1459910195.3,286047001.3,N
1459910215.1,286047002.4,N
1459910235.8,286046998.3,N
1459910255.7,286046997.1,N
1459910275.5,286046999.4,N
1459910295.3,286046999.0,N
1459910315.2,286046997.0,N
1459910335.9,286046995.4,N
1459910355.7,286046995.5,N
1459910375.6,286046995.4,N
1459910395.4,286046995.7,N
1459910415.2,286046999.1,N
1459910435.0,286046999.1,N
1459910436.0,286046999.1,N
1459910455.8,286046998.1,N
1459910475.6,286047000.6,N
1459910495.4,286047004.3,N
1459910515.3,286047001.6,N
1459910535.1,286047003.6,N
1459910555.8,286047001.5,N
1459910575.7,286047001.4,N
1459910595.5,286047001.7,N
1459910615.3,286046999.8,N
1459910635.2,286047004.4,N
1459910655.9,286047005.4,N
1459910675.7,286047004.7,N
1459910695.6,286047008.7,Y
1459910715.4,286047004.5,P
1459910735.2,286047004.1,N
1459910755.1,286047006.0,N
1459910756.0,286047006.0,N
1459910775.8,286047003.7,N
1459910795.6,286047000.5,N
1459910815.5,286046998.1,N
1459910835.3,286046999.4,N
1459910855.1,286046999.1,N
1459910875.9,286046995.0,N
1459910895.7,286046996.6,N
1459910915.5,286046995.1,N
1459910935.3,286046995.6,N
1459910955.2,286046993.7,N
1459910975.0,286046991.7,N
1459910975.9,286046991.7,N
1459910995.7,286046993.0,N
1459911015.6,286046991.7,N
1459911035.4,286046992.4,N
1459911055.2,286046992.0,N
1459911075.1,286046992.2,N
1459911076.0,286046992.2,N
1459911095.8,286046992.1,N
1459911115.6,286046993.7,N
1459911135.5,286046993.4,N
1459911155.3,286046995.7,N
1459911175.1,286046991.7,N
1459911195.9,286046994.4,N
1459911215.7,286046996.2,N
1459911235.5,286046995.5,N
1459911255.4,286046998.0,N
1459911275.2,286046997.7,N
1459911295.0,286046997.6,N
1459911295.9,286046997.6,N
1459911315.8,286046995.1,N
1459911335.6,286046997.2,N
1459911355.4,286047000.7,N
1459911375.2,286046998.7,N
1459911395.1,286047002.7,N
1459911396.0,286047002.7,N
1459911415.8,286046999.9,N
1459911435.6,286046998.4,N
1459911455.5,286047001.7,N
1459911475.3,286047001.4,N
1459911495.1,286047002.2,N
1459911515.9,286047002.8,N
1459911535.7,286047002.8,N
1459911555.5,286047003.7,N
1459911575.4,286047003.8,N
1459911595.2,286047003.5,N
